Time,TemperatureF,DewpointF,PressureIn,WindDirection,WindDirectionDegrees,WindSpeedMPH,WindSpeedGustMPH,Humidity,HourlyPrecipIn,Conditions,Clouds,dailyrainin,SolarRadiationWatts/m^2,SoftwareType,DateUTC
2014-09-23 00:15:00,48.5,44.8,30.24,NNW,334,0.0,0.0,87,0.00,CLR,,0.00,0.0,WeatherDisplay:10.37,2014-09-23 04:15:00,
2014-09-23 00:45:00,48.2,44.8,30.24,NNW,334,0.0,0.0,88,0.00,CLR,,0.00,0.0,WeatherDisplay:10.37,2014-09-23 04:45:00,
2014-09-23 01:15:00,47.7,44.3,30.24,NNW,334,0.0,0.0,88,0.00,,,0.00,0.0,WeatherDisplay:10.37,2014-09-23 05:15:00,
2014-09-23 01:45:00,47.2,44.1,30.25,NNW,334,0.0,0.0,89,0.00,,,0.00,0.0,WeatherDisplay:10.37,2014-09-23 05:45:00,
2014-09-23 02:15:00,46.7,43.9,30.25,NNW,334,0.0,0.0,90,0.00,,,0.00,0.0,WeatherDisplay:10.37,2014-09-23 06:15:00,
2014-09-23 02:45:00,46.3,43.5,30.25,NNW,334,0.0,0.0,90,0.00,,,0.00,0.0,WeatherDisplay:10.37,2014-09-23 06:45:00,
2014-09-23 03:15:00,46.1,43.7,30.25,NNW,334,0.0,0.0,91,0.00,,,0.00,0.0,WeatherDisplay:10.37,2014-09-23 07:15:00,
2014-09-23 03:45:00,45.5,43.3,30.24,NNW,334,0.0,0.0,92,0.00,,,0.00,0.0,WeatherDisplay:10.37,2014-09-23 07:45:00,
2014-09-23 04:15:00,45.0,43.1,30.25,NNW,334,0.0,0.0,93,0.00,,,0.00,0.0,WeatherDisplay:10.37,2014-09-23 08:15:00,
2014-09-23 04:45:00,45.0,43.1,30.25,NNW,334,0.0,0.0,93,0.00,,,0.00,0.0,WeatherDisplay:10.37,2014-09-23 08:45:00,
2014-09-23 05:15:00,44.5,42.9,30.25,NNW,334,0.0,0.0,94,0.00,,,0.00,0.0,WeatherDisplay:10.37,2014-09-23 09:15:00,
2014-09-23 05:45:00,44.6,43.0,30.26,NNW,334,0.0,0.0,94,0.00,,,0.00,0.0,WeatherDisplay:10.37,2014-09-23 09:45:00,
2014-09-23 06:15:00,44.2,42.6,30.27,NNW,334,0.0,0.0,94,0.00,,,0.00,0.0,WeatherDisplay:10.37,2014-09-23 10:15:00,
2014-09-23 06:45:00,43.7,42.1,30.28,NNW,334,0.0,0.0,94,0.00,,,0.00,0.0,WeatherDisplay:10.37,2014-09-23 10:45:00,
2014-09-23 07:15:00,43.8,42.5,30.28,NNW,334,0.0,0.0,95,0.00,CLR,,0.00,0.0,WeatherDisplay:10.37,2014-09-23 11:15:00,
2014-09-23 07:45:00,43.3,41.9,30.29,NNW,334,0.0,0.0,95,0.00,CLR,,0.00,11.0,WeatherDisplay:10.37,2014-09-23 11:45:00,
2014-09-23 08:15:00,44.2,42.9,30.29,NNW,334,0.0,0.0,95,0.00,CLR,,0.00,19.0,WeatherDisplay:10.37,2014-09-23 12:15:00,
2014-09-23 08:45:00,46.8,45.4,30.30,NNW,334,0.0,1.0,95,0.00,CLR,,0.00,39.0,WeatherDisplay:10.37,2014-09-23 12:45:00,
2014-09-23 09:15:00,51.5,48.9,30.31,South,184,1.0,3.0,91,0.00,OVC,,0.00,285.0,WeatherDisplay:10.37,2014-09-23 13:15:00,
2014-09-23 09:45:00,56.3,48.4,30.32,ESE,112,0.0,2.0,75,0.00,OVC,,0.00,381.0,WeatherDisplay:10.37,2014-09-23 13:45:00,